Location: Newark
(13.4819°N, 12.8431°E)
Time: 02:07:20
(UTC+00:00)

Envisat - Visible Passes

Search period start: 16 October 2019 00:00
Search period end: 26 October 2019 00:00
Orbit: 764 x 766 km, 98.1° (Epoch: 15 October)

Date Brightness Start Highest point End Pass type
(mag) Time Alt. Az. Time Alt. Az. Time Alt. Az.
16 Oct 4.8 18:10:56 10° SSW 18:15:25 32° W 18:19:56 10° NW visible
17 Oct 3.0 17:33:38 10° SSE 17:38:43 89° E 17:43:47 10° NNW visible
18 Oct 5.9 18:37:55 10° SW 18:40:56 16° W 18:43:57 10° WNW visible
19 Oct 4.2 17:59:21 10° S 18:04:10 44° W 18:08:59 10° NNW visible
20 Oct 2.9 17:22:27 10° SSE 17:27:29 66° ENE 17:32:29 10° N visible
21 Oct 5.5 18:25:51 10° SSW 18:29:40 21° W 18:33:29 10° NW visible
22 Oct 3.6 17:47:56 10° S 17:52:55 60° WSW 17:57:55 10° NNW visible
23 Oct 3.2 17:11:24 10° SSE 17:16:15 48° ENE 17:21:07 10° N visible
24 Oct 5.0 18:14:03 10° SSW 18:18:24 29° W 18:22:45 10° NW visible
25 Oct 3.1 17:36:36 10° S 17:41:40 82° WSW 17:46:45 10° NNW visible
